FDX9127 PANC-KDFW

Flight info

Callsign FDX9127
Flight time 5h 19m
Altitude 35000
Route TED JOH YAK DEEJA MITOM 57N128W 55N123W 5325N12000W ROMRA IGVEP HAYDN YQL LWT BIL CZI BFF SNY GLD GCK MMB HOFFF VKTRY2
Aircraft B77L/H-SDE1E2E3FGHIJ2J3J4J5M1RWXY/LB1D1

Departure

Time 2026-05-04 04:49
Airport Ted Stevens Anchorage International Airport (PANC)

Arrival

Time 2026-05-04 10:08
Airport Dallas Fort Worth International Airport (KDFW)
Time Latitude Longitude Altitude Speed Heading
2026-05-04 04:24 61.18989 -149.99941 121 ft 0 kts 75°
2026-05-04 04:33 61.18985 -149.99974 121 ft 4 kts 75°
2026-05-04 04:34 61.18978 -150.00024 119 ft 2 kts 75°
2026-05-04 04:34 61.18971 -150.00067 114 ft 4 kts 45°
2026-05-04 04:34 61.18953 -150.00080 116 ft 3 kts 345°
2026-05-04 04:34 61.18928 -150.00066 114 ft 2 kts 345°
2026-05-04 04:35 61.18926 -150.00065 114 ft 0 kts 345°
2026-05-04 04:38 61.18932 -150.00068 114 ft 4 kts 345°
2026-05-04 04:39 61.19006 -150.00109 119 ft 14 kts 345°
2026-05-04 04:39 61.19098 -150.00161 122 ft 14 kts 345°
2026-05-04 04:39 61.19157 -150.00287 126 ft 14 kts 268°
2026-05-04 04:39 61.19135 -150.00476 137 ft 14 kts 254°
2026-05-04 04:40 61.19111 -150.00668 141 ft 14 kts 255°
2026-05-04 04:40 61.19086 -150.00858 145 ft 14 kts 254°
2026-05-04 04:40 61.19061 -150.01049 146 ft 14 kts 255°
2026-05-04 04:40 61.19009 -150.01195 146 ft 14 kts 189°
2026-05-04 04:41 61.18915 -150.01159 144 ft 14 kts 165°
2026-05-04 04:41 61.18823 -150.01109 142 ft 14 kts 165°
2026-05-04 04:41 61.18732 -150.01059 140 ft 14 kts 165°
2026-05-04 04:41 61.18640 -150.01008 138 ft 14 kts 165°
2026-05-04 04:42 61.18547 -150.00957 137 ft 14 kts 165°
2026-05-04 04:42 61.18455 -150.00906 128 ft 14 kts 165°
2026-05-04 04:42 61.18363 -150.00855 134 ft 14 kts 165°
2026-05-04 04:42 61.18271 -150.00804 124 ft 14 kts 165°
2026-05-04 04:43 61.18179 -150.00752 129 ft 14 kts 165°
2026-05-04 04:43 61.18087 -150.00698 126 ft 14 kts 163°
2026-05-04 04:43 61.17996 -150.00643 124 ft 14 kts 163°
2026-05-04 04:43 61.17905 -150.00588 125 ft 14 kts 163°
2026-05-04 04:44 61.17813 -150.00532 126 ft 14 kts 164°
2026-05-04 04:44 61.17720 -150.00486 124 ft 14 kts 167°
2026-05-04 04:44 61.17629 -150.00439 127 ft 14 kts 165°
2026-05-04 04:44 61.17537 -150.00388 126 ft 14 kts 165°
2026-05-04 04:45 61.17445 -150.00337 128 ft 14 kts 165°
2026-05-04 04:45 61.17353 -150.00286 133 ft 14 kts 165°
2026-05-04 04:45 61.17261 -150.00234 127 ft 14 kts 165°
2026-05-04 04:47 61.16980 -150.00690 141 ft 14 kts 101°
2026-05-04 04:47 61.16977 -150.00376 140 ft 41 kts 90°
2026-05-04 04:47 61.16978 -149.99288 126 ft 108 kts 90°
2026-05-04 04:47 61.16979 -149.97336 110 ft 161 kts 90°
2026-05-04 04:48 61.16990 -149.94856 403 ft 178 kts 88°
2026-05-04 04:49 61.14162 -149.91700 2161 ft 187 kts 231°
2026-05-04 04:49 61.13150 -149.93369 2536 ft 187 kts 204°
2026-05-04 04:49 61.12009 -149.94610 2982 ft 190 kts 210°
2026-05-04 04:49 61.10878 -149.96087 3405 ft 198 kts 211°
2026-05-04 04:50 61.09656 -149.97697 3609 ft 218 kts 211°
2026-05-04 04:50 61.08301 -149.99466 3776 ft 243 kts 210°
2026-05-04 04:50 61.06817 -150.01384 4226 ft 256 kts 209°
2026-05-04 04:50 61.05275 -150.03284 4935 ft 259 kts 207°
2026-05-04 04:51 61.03698 -150.05119 5719 ft 259 kts 206°
2026-05-04 04:51 61.02128 -150.06943 6550 ft 259 kts 207°
2026-05-04 04:51 61.00572 -150.08849 7228 ft 263 kts 211°
2026-05-04 04:51 60.99029 -150.10900 7968 ft 262 kts 211°
2026-05-04 04:52 60.97515 -150.12902 8769 ft 261 kts 211°
2026-05-04 04:52 60.95981 -150.14895 9558 ft 260 kts 211°
2026-05-04 04:52 60.94447 -150.16870 10283 ft 261 kts 210°
2026-05-04 04:52 60.92879 -150.18923 10632 ft 277 kts 212°
2026-05-04 04:53 60.91199 -150.21180 10810 ft 299 kts 212°
2026-05-04 04:53 60.89417 -150.23618 10985 ft 322 kts 213°
2026-05-04 04:53 60.87501 -150.26259 11335 ft 337 kts 213°
2026-05-04 04:53 60.85537 -150.28992 12024 ft 344 kts 213°
2026-05-04 04:54 60.83406 -150.31184 12623 ft 348 kts 194°
2026-05-04 04:54 60.80967 -150.31383 13428 ft 358 kts 175°
2026-05-04 04:54 60.78554 -150.29940 14282 ft 367 kts 160°
2026-05-04 04:54 60.76357 -150.27123 15032 ft 381 kts 144°
2026-05-04 04:55 60.74625 -150.22973 15735 ft 398 kts 127°
2026-05-04 04:55 60.73598 -150.17609 16416 ft 416 kts 106°
2026-05-04 04:55 60.73209 -150.11707 16948 ft 424 kts 102°
2026-05-04 04:55 60.72893 -150.05651 17546 ft 432 kts 101°
2026-05-04 04:56 60.72585 -149.99500 18264 ft 436 kts 101°
2026-05-04 04:56 60.72268 -149.93322 18950 ft 439 kts 102°
2026-05-04 04:56 60.71930 -149.87100 19544 ft 443 kts 102°
2026-05-04 04:56 60.71570 -149.80805 20159 ft 448 kts 102°
2026-05-04 04:57 60.71324 -149.76603 20555 ft 451 kts 103°
2026-05-04 04:57 60.70941 -149.70218 21171 ft 455 kts 103°
2026-05-04 04:57 60.70548 -149.63784 21737 ft 458 kts 103°
2026-05-04 04:57 60.70145 -149.57295 22332 ft 463 kts 103°
2026-05-04 04:58 60.69599 -149.48600 23070 ft 468 kts 103°
2026-05-04 04:58 60.69314 -149.44127 23451 ft 471 kts 104°
2026-05-04 04:58 60.68887 -149.37526 23961 ft 476 kts 104°
2026-05-04 04:58 60.68447 -149.30788 24377 ft 480 kts 104°
2026-05-04 04:59 60.68003 -149.24004 24750 ft 485 kts 104°
2026-05-04 04:59 60.67559 -149.17145 25169 ft 488 kts 104°
2026-05-04 04:59 60.67120 -149.10322 25687 ft 491 kts 104°
2026-05-04 04:59 60.66663 -149.03404 26147 ft 494 kts 104°
2026-05-04 05:00 60.66192 -148.96435 26528 ft 498 kts 105°
2026-05-04 05:00 60.65708 -148.89399 26959 ft 502 kts 105°
2026-05-04 05:00 60.64735 -148.75202 27825 ft 509 kts 105°
2026-05-04 05:01 60.64240 -148.68022 28211 ft 512 kts 105°
2026-05-04 05:01 60.63742 -148.60820 28567 ft 515 kts 105°
2026-05-04 05:01 60.63230 -148.53601 28946 ft 517 kts 105°
2026-05-04 05:01 60.62710 -148.46299 29179 ft 524 kts 105°
2026-05-04 05:02 60.62188 -148.39006 29396 ft 530 kts 105°
2026-05-04 05:02 60.61654 -148.31566 29823 ft 530 kts 105°
2026-05-04 05:02 60.61122 -148.24145 30473 ft 527 kts 106°
2026-05-04 05:02 60.60591 -148.16789 30923 ft 526 kts 106°
2026-05-04 05:03 60.60049 -148.09418 31309 ft 527 kts 107°
2026-05-04 05:03 60.59499 -148.02042 31694 ft 527 kts 107°
2026-05-04 05:04 60.57827 -147.79940 32861 ft 526 kts 107°
2026-05-04 05:04 60.57262 -147.72573 33199 ft 526 kts 107°
2026-05-04 05:04 60.56701 -147.65307 33563 ft 526 kts 107°
2026-05-04 05:06 60.52614 -147.13925 35191 ft 530 kts 108°
2026-05-04 05:06 60.52010 -147.06541 35199 ft 530 kts 108°
2026-05-04 05:07 60.50794 -146.91787 35228 ft 529 kts 108°
2026-05-04 05:07 60.49567 -146.77152 35236 ft 528 kts 108°
2026-05-04 05:09 60.42697 -146.11661 35249 ft 530 kts 111°
2026-05-04 05:10 60.41032 -145.97168 35240 ft 531 kts 111°
2026-05-04 05:10 60.39351 -145.82579 35237 ft 532 kts 111°
2026-05-04 05:11 60.37656 -145.68022 35200 ft 532 kts 112°
2026-05-04 05:11 60.35938 -145.53453 35237 ft 533 kts 112°
2026-05-04 05:12 60.34203 -145.38901 35251 ft 533 kts 112°
2026-05-04 05:12 60.32449 -145.24348 35248 ft 534 kts 112°
2026-05-04 05:13 60.30678 -145.09796 35250 ft 534 kts 112°
2026-05-04 05:13 60.28890 -144.95246 35246 ft 533 kts 112°
2026-05-04 05:14 60.27102 -144.80835 35249 ft 534 kts 112°
2026-05-04 05:14 60.25280 -144.66311 35273 ft 535 kts 112°
2026-05-04 05:15 60.23441 -144.51782 35273 ft 537 kts 112°
2026-05-04 05:15 60.21577 -144.37209 35243 ft 537 kts 112°
2026-05-04 05:16 60.19712 -144.22724 35269 ft 538 kts 112°
2026-05-04 05:16 60.17810 -144.08140 35276 ft 540 kts 112°
2026-05-04 05:17 60.15875 -143.93483 35275 ft 543 kts 112°
2026-05-04 05:17 60.13925 -143.78801 35276 ft 544 kts 112°
2026-05-04 05:18 60.11967 -143.64183 35275 ft 545 kts 113°
2026-05-04 05:18 60.09978 -143.49470 35272 ft 545 kts 113°
2026-05-04 05:19 60.07981 -143.34843 35274 ft 544 kts 113°
2026-05-04 05:19 60.05966 -143.20230 35283 ft 543 kts 113°
2026-05-04 05:20 60.03943 -143.05691 35282 ft 541 kts 114°
2026-05-04 05:20 60.01922 -142.91299 35299 ft 540 kts 113°
2026-05-04 05:21 59.99876 -142.76865 35291 ft 539 kts 114°
2026-05-04 05:21 59.97814 -142.62449 35292 ft 540 kts 114°
2026-05-04 05:22 59.95733 -142.48021 35292 ft 540 kts 114°
2026-05-04 05:22 59.93633 -142.33598 35262 ft 541 kts 114°
2026-05-04 05:23 59.91519 -142.19191 35287 ft 541 kts 114°
2026-05-04 05:23 59.89401 -142.04883 35298 ft 542 kts 114°
2026-05-04 05:24 59.87251 -141.90488 35297 ft 543 kts 114°
2026-05-04 05:24 59.85082 -141.76089 35298 ft 543 kts 114°
2026-05-04 05:25 59.82897 -141.61700 35301 ft 543 kts 114°
2026-05-04 05:25 59.80696 -141.47334 35306 ft 543 kts 114°
2026-05-04 05:26 59.78476 -141.32962 35309 ft 544 kts 114°
2026-05-04 05:26 59.76254 -141.18702 35307 ft 544 kts 115°
2026-05-04 05:28 59.67154 -140.61482 35315 ft 545 kts 115°
2026-05-04 05:29 59.64844 -140.47250 35314 ft 546 kts 115°
2026-05-04 05:29 59.62504 -140.32952 35303 ft 546 kts 114°
2026-05-04 05:31 59.52988 -139.75903 35279 ft 548 kts 115°
2026-05-04 05:32 59.50666 -139.61577 35309 ft 551 kts 109°
2026-05-04 05:33 59.48194 -139.39408 35322 ft 552 kts 107°
2026-05-04 05:33 59.46570 -139.24724 35327 ft 551 kts 108°
2026-05-04 05:34 59.44885 -139.09995 35320 ft 552 kts 107°
2026-05-04 05:34 59.43173 -138.95310 35318 ft 551 kts 107°
2026-05-04 05:35 59.41445 -138.80628 35334 ft 552 kts 107°
2026-05-04 05:35 59.39727 -138.66208 35329 ft 552 kts 107°
2026-05-04 05:36 59.37977 -138.51616 35336 ft 552 kts 108°
2026-05-04 05:36 59.36204 -138.36976 35306 ft 551 kts 108°
2026-05-04 05:37 59.34415 -138.22376 35332 ft 551 kts 107°
2026-05-04 05:37 59.32609 -138.07765 35329 ft 552 kts 108°
2026-05-04 05:38 59.29870 -137.85934 35328 ft 552 kts 108°
2026-05-04 05:38 59.28020 -137.71360 35336 ft 552 kts 107°
2026-05-04 05:39 59.25530 -137.51975 35304 ft 551 kts 107°
2026-05-04 05:40 59.22398 -137.27906 35314 ft 547 kts 108°
2026-05-04 05:40 59.20823 -137.15924 35335 ft 547 kts 108°
2026-05-04 05:41 59.18910 -137.01547 35337 ft 548 kts 108°
2026-05-04 05:41 59.16977 -136.87155 35339 ft 548 kts 108°
2026-05-04 05:42 59.15034 -136.72799 35349 ft 547 kts 108°
2026-05-04 05:42 59.13067 -136.58449 35361 ft 547 kts 108°
2026-05-04 05:43 59.11095 -136.44106 35298 ft 548 kts 108°
2026-05-04 05:45 59.02996 -135.86699 35353 ft 556 kts 108°
2026-05-04 05:47 58.94565 -135.29070 35349 ft 553 kts 109°
2026-05-04 05:47 58.92416 -135.14737 35364 ft 554 kts 109°
2026-05-04 05:48 58.90264 -135.00390 35360 ft 554 kts 109°
2026-05-04 05:48 58.88102 -134.86158 35363 ft 556 kts 109°
2026-05-04 05:49 58.85894 -134.71822 35352 ft 556 kts 109°
2026-05-04 05:49 58.83664 -134.57478 35354 ft 558 kts 109°
2026-05-04 05:51 58.74580 -133.99992 35356 ft 560 kts 109°
2026-05-04 05:52 58.72270 -133.85674 35365 ft 560 kts 109°
2026-05-04 05:52 58.69956 -133.71460 35338 ft 559 kts 109°
2026-05-04 05:54 58.60515 -133.14594 35379 ft 558 kts 109°
2026-05-04 05:55 58.58117 -133.00446 35344 ft 558 kts 109°
2026-05-04 05:55 58.55705 -132.86300 35366 ft 558 kts 109°
2026-05-04 05:56 58.53277 -132.72173 35359 ft 559 kts 109°
2026-05-04 05:56 58.50843 -132.58125 35343 ft 558 kts 109°
2026-05-04 05:57 58.48383 -132.44045 35351 ft 559 kts 109°
2026-05-04 05:57 58.45905 -132.29978 35338 ft 559 kts 108°
2026-05-04 05:58 58.43411 -132.15909 35321 ft 558 kts 108°
2026-05-04 05:58 58.40911 -132.01910 35322 ft 556 kts 109°
2026-05-04 05:59 58.38401 -131.87961 35324 ft 555 kts 109°
2026-05-04 05:59 58.35894 -131.74132 35295 ft 555 kts 109°
2026-05-04 06:00 58.33341 -131.60244 35299 ft 555 kts 111°
2026-05-04 06:00 58.30003 -131.47034 35297 ft 554 kts 123°
2026-05-04 06:01 58.25723 -131.34880 35280 ft 553 kts 126°
2026-05-04 06:03 58.08561 -130.86536 35266 ft 554 kts 126°
2026-05-04 06:05 57.89008 -130.32432 35243 ft 555 kts 126°
2026-05-04 06:06 57.84640 -130.20417 35210 ft 557 kts 126°
2026-05-04 06:06 57.80238 -130.08445 35236 ft 557 kts 126°
2026-05-04 06:07 57.75864 -129.96562 35227 ft 555 kts 126°
2026-05-04 06:07 57.71444 -129.84672 35231 ft 556 kts 126°
2026-05-04 06:08 57.67007 -129.72774 35220 ft 557 kts 126°
2026-05-04 06:08 57.62550 -129.60922 35197 ft 557 kts 126°
2026-05-04 06:09 57.58079 -129.49120 35189 ft 556 kts 126°
2026-05-04 06:11 57.40207 -129.02210 35188 ft 556 kts 126°
2026-05-04 06:13 57.22116 -128.55685 35193 ft 559 kts 126°
2026-05-04 06:14 57.06074 -128.15165 35172 ft 559 kts 126°
2026-05-04 06:15 57.01471 -128.03671 35176 ft 559 kts 126°
2026-05-04 06:15 56.96973 -127.92157 35173 ft 558 kts 123°
2026-05-04 06:16 56.92717 -127.80267 35172 ft 558 kts 121°
2026-05-04 06:16 56.88488 -127.68322 35170 ft 558 kts 122°
2026-05-04 06:17 56.84191 -127.56483 35159 ft 558 kts 123°
2026-05-04 06:17 56.79884 -127.44813 35162 ft 558 kts 122°
2026-05-04 06:18 56.75525 -127.33099 35168 ft 557 kts 122°
2026-05-04 06:20 56.58793 -126.88267 35153 ft 559 kts 123°
2026-05-04 06:21 56.47831 -126.59402 35173 ft 557 kts 123°
2026-05-04 06:22 56.43408 -126.47853 35176 ft 557 kts 123°
2026-05-04 06:25 56.12281 -125.68056 35176 ft 556 kts 123°
2026-05-04 06:26 56.07817 -125.56727 35145 ft 557 kts 123°
2026-05-04 06:26 56.03302 -125.45469 35157 ft 556 kts 123°
2026-05-04 06:27 55.92008 -125.17469 35149 ft 553 kts 123°
2026-05-04 06:28 55.87543 -125.06411 35149 ft 553 kts 123°
2026-05-04 06:28 55.83032 -124.95296 35141 ft 554 kts 123°
2026-05-04 06:29 55.78482 -124.84199 35152 ft 555 kts 123°
2026-05-04 06:29 55.73912 -124.73109 35143 ft 556 kts 124°
2026-05-04 06:30 55.69358 -124.62113 35150 ft 555 kts 123°
2026-05-04 06:30 55.64783 -124.51066 35141 ft 555 kts 123°
2026-05-04 06:31 55.60193 -124.40045 35141 ft 556 kts 123°
2026-05-04 06:31 55.55610 -124.29133 35137 ft 556 kts 123°
2026-05-04 06:33 55.37129 -123.85441 35131 ft 555 kts 123°
2026-05-04 06:34 55.32498 -123.74628 35116 ft 554 kts 123°
2026-05-04 06:34 55.27856 -123.63846 35106 ft 552 kts 123°
2026-05-04 06:36 55.09299 -123.21132 35096 ft 550 kts 123°
2026-05-04 06:37 55.04642 -123.10535 35092 ft 550 kts 123°
2026-05-04 06:37 55.00002 -123.00021 35119 ft 550 kts 124°
2026-05-04 06:38 54.95050 -122.89815 35117 ft 552 kts 127°
2026-05-04 06:40 54.74780 -122.49702 35106 ft 554 kts 127°
2026-05-04 06:40 54.69695 -122.39646 35104 ft 555 kts 127°
2026-05-04 06:41 54.64624 -122.29677 35102 ft 556 kts 127°
2026-05-04 06:41 54.59505 -122.19671 35105 ft 556 kts 127°
2026-05-04 06:42 54.54367 -122.09669 35107 ft 557 kts 127°
2026-05-04 06:44 54.33853 -121.70070 35087 ft 553 kts 126°
2026-05-04 06:44 54.28733 -121.60253 35079 ft 553 kts 128°
2026-05-04 06:45 54.23532 -121.50495 35093 ft 555 kts 127°
2026-05-04 06:45 54.18342 -121.40691 35077 ft 556 kts 128°
2026-05-04 06:46 54.13153 -121.30908 35085 ft 556 kts 127°
2026-05-04 06:46 54.07967 -121.21267 35074 ft 551 kts 129°
2026-05-04 06:48 53.87319 -120.82668 35101 ft 557 kts 127°
2026-05-04 06:50 53.66450 -120.44547 35127 ft 555 kts 128°
2026-05-04 06:51 53.61204 -120.35086 35073 ft 554 kts 128°
2026-05-04 06:51 53.55989 -120.25630 35077 ft 549 kts 127°
2026-05-04 06:52 53.50763 -120.16224 35077 ft 549 kts 128°
2026-05-04 06:52 53.45548 -120.06851 35080 ft 548 kts 128°
2026-05-04 06:53 53.40320 -119.97533 35034 ft 549 kts 129°
2026-05-04 06:53 53.35097 -119.88189 35039 ft 550 kts 127°
2026-05-04 06:54 53.29816 -119.79011 35103 ft 550 kts 129°
2026-05-04 06:54 53.24612 -119.69686 35086 ft 547 kts 127°
2026-05-04 06:55 53.19438 -119.60307 35082 ft 550 kts 127°
2026-05-04 06:55 53.14203 -119.51024 35041 ft 549 kts 128°
2026-05-04 06:57 52.93323 -119.14597 35027 ft 549 kts 128°
2026-05-04 06:58 52.88051 -119.05382 35052 ft 551 kts 128°
2026-05-04 06:58 52.82761 -118.96302 34976 ft 547 kts 132°
2026-05-04 06:59 52.80044 -118.91972 35105 ft 539 kts 129°
2026-05-04 06:59 52.77423 -118.87506 35004 ft 543 kts 128°
2026-05-04 06:59 52.72193 -118.78372 35025 ft 548 kts 128°
2026-05-04 07:01 52.51942 -118.44133 35082 ft 543 kts 131°
2026-05-04 07:02 52.46636 -118.35248 35042 ft 546 kts 128°
2026-05-04 07:02 52.41400 -118.26151 35020 ft 552 kts 129°
2026-05-04 07:03 52.36029 -118.17136 34984 ft 549 kts 130°
2026-05-04 07:03 52.30682 -118.08304 34983 ft 542 kts 131°
2026-05-04 07:04 52.27995 -118.03979 35098 ft 542 kts 129°
2026-05-04 07:04 52.25354 -117.99538 34989 ft 547 kts 129°
2026-05-04 07:04 52.20045 -117.90646 35015 ft 548 kts 129°
2026-05-04 07:05 52.14739 -117.81902 35032 ft 542 kts 129°
2026-05-04 07:05 52.09421 -117.73211 34997 ft 540 kts 130°
2026-05-04 07:06 52.01997 -117.59460 35009 ft 537 kts 118°
2026-05-04 07:07 51.97772 -117.49495 35012 ft 536 kts 117°
2026-05-04 07:09 51.80968 -117.09708 34961 ft 534 kts 118°
2026-05-04 07:09 51.76724 -116.99931 35011 ft 529 kts 118°
2026-05-04 07:10 51.72488 -116.90196 35002 ft 531 kts 118°
2026-05-04 07:12 51.55505 -116.51375 34992 ft 531 kts 119°
2026-05-04 07:12 51.51237 -116.41718 34990 ft 530 kts 118°
2026-05-04 07:13 51.46953 -116.32074 35016 ft 532 kts 120°
2026-05-04 07:13 51.42660 -116.22391 34996 ft 533 kts 119°
2026-05-04 07:14 51.31864 -115.98216 35003 ft 532 kts 119°
2026-05-04 07:15 51.27593 -115.88748 34992 ft 524 kts 121°
2026-05-04 07:15 51.23170 -115.79433 34989 ft 529 kts 120°
2026-05-04 07:16 51.18921 -115.69807 35016 ft 529 kts 118°
2026-05-04 07:16 51.14655 -115.60213 35014 ft 530 kts 120°
2026-05-04 07:17 51.10367 -115.50751 35038 ft 527 kts 119°
2026-05-04 07:17 51.06087 -115.41282 35026 ft 528 kts 121°
2026-05-04 07:18 51.01695 -115.31891 35048 ft 531 kts 121°
2026-05-04 07:18 50.97290 -115.22498 35050 ft 529 kts 121°
2026-05-04 07:19 50.92948 -115.13104 35060 ft 527 kts 121°
2026-05-04 07:19 50.88628 -115.03722 35057 ft 526 kts 121°
2026-05-04 07:20 50.84264 -114.94449 35087 ft 525 kts 122°
2026-05-04 07:20 50.79936 -114.85216 35084 ft 525 kts 121°
2026-05-04 07:22 50.61756 -114.49039 35103 ft 529 kts 126°
2026-05-04 07:23 50.56968 -114.40310 35119 ft 530 kts 126°
2026-05-04 07:23 50.52162 -114.31487 35104 ft 532 kts 126°
2026-05-04 07:24 50.47337 -114.22661 35098 ft 533 kts 126°
2026-05-04 07:24 50.42568 -114.13766 35098 ft 532 kts 125°
2026-05-04 07:26 50.23790 -113.78038 35082 ft 529 kts 126°
2026-05-04 07:27 50.19111 -113.69252 35080 ft 528 kts 126°
2026-05-04 07:27 50.14402 -113.60440 35081 ft 528 kts 126°
2026-05-04 07:28 50.09703 -113.51671 35080 ft 528 kts 126°
2026-05-04 07:28 50.05012 -113.42945 35092 ft 528 kts 126°
2026-05-04 07:29 50.00284 -113.34183 35070 ft 530 kts 126°
2026-05-04 07:29 49.95523 -113.25386 35064 ft 530 kts 126°
2026-05-04 07:30 49.90788 -113.16670 35059 ft 531 kts 126°
2026-05-04 07:30 49.86020 -113.07920 35065 ft 531 kts 126°
2026-05-04 07:31 49.81232 -112.99164 35066 ft 531 kts 126°
2026-05-04 07:33 49.61908 -112.64763 35070 ft 532 kts 135°
2026-05-04 07:33 49.56188 -112.57503 35056 ft 532 kts 139°
2026-05-04 07:34 49.50410 -112.50357 35058 ft 531 kts 139°
2026-05-04 07:34 49.44714 -112.43250 35044 ft 530 kts 139°
2026-05-04 07:35 49.39001 -112.36089 35041 ft 529 kts 139°
2026-05-04 07:35 49.33298 -112.28947 35034 ft 528 kts 139°
2026-05-04 07:36 49.27599 -112.21841 35036 ft 527 kts 139°
2026-05-04 07:38 49.04858 -111.93718 35026 ft 525 kts 140°
2026-05-04 07:38 48.99168 -111.86734 35019 ft 525 kts 140°
2026-05-04 07:39 48.93477 -111.79770 35010 ft 525 kts 140°
2026-05-04 07:39 48.87813 -111.72859 35004 ft 525 kts 140°
2026-05-04 07:40 48.82109 -111.65921 35010 ft 525 kts 140°
2026-05-04 07:40 48.76394 -111.58991 35006 ft 525 kts 140°
2026-05-04 07:41 48.70681 -111.52084 34975 ft 525 kts 140°
2026-05-04 07:41 48.65004 -111.45241 34963 ft 524 kts 140°
2026-05-04 07:42 48.59291 -111.38374 34969 ft 524 kts 141°
2026-05-04 07:42 48.54542 -111.32682 34951 ft 524 kts 141°
2026-05-04 07:43 48.48829 -111.25853 34950 ft 524 kts 141°
2026-05-04 07:43 48.43106 -111.19033 34929 ft 524 kts 141°
2026-05-04 07:44 48.37395 -111.12247 34939 ft 522 kts 141°
2026-05-04 07:44 48.31686 -111.05481 34949 ft 523 kts 141°
2026-05-04 07:45 48.25947 -110.98701 34937 ft 525 kts 141°
2026-05-04 07:45 48.20224 -110.91960 34931 ft 526 kts 142°
2026-05-04 07:46 48.14454 -110.85186 34923 ft 527 kts 142°
2026-05-04 07:46 48.08681 -110.78426 34919 ft 526 kts 142°
2026-05-04 07:47 48.02904 -110.71680 34917 ft 524 kts 142°
2026-05-04 07:49 47.80002 -110.45133 34930 ft 519 kts 143°
2026-05-04 07:49 47.74318 -110.38592 34918 ft 519 kts 143°
2026-05-04 07:50 47.68607 -110.32038 34908 ft 519 kts 143°
2026-05-04 07:50 47.62889 -110.25495 34918 ft 518 kts 143°
2026-05-04 07:51 47.57173 -110.18973 34907 ft 519 kts 143°
2026-05-04 07:51 47.51482 -110.12496 34901 ft 519 kts 143°
2026-05-04 07:52 47.45759 -110.06003 34890 ft 518 kts 143°
2026-05-04 07:52 47.40033 -109.99525 34879 ft 518 kts 143°
2026-05-04 07:54 47.17189 -109.73853 34881 ft 518 kts 144°
2026-05-04 07:55 47.11431 -109.67425 34872 ft 521 kts 144°
2026-05-04 07:55 47.05624 -109.61029 34868 ft 521 kts 147°
2026-05-04 07:56 46.99382 -109.55659 34858 ft 519 kts 154°
2026-05-04 07:56 46.93050 -109.50667 34854 ft 519 kts 154°
2026-05-04 07:57 46.86716 -109.45631 34845 ft 518 kts 153°
2026-05-04 07:57 46.80394 -109.40568 34859 ft 517 kts 153°
2026-05-04 07:58 46.74098 -109.35521 34824 ft 515 kts 154°
2026-05-04 07:58 46.67817 -109.30536 34836 ft 514 kts 153°
2026-05-04 07:59 46.61558 -109.25533 34840 ft 513 kts 153°
2026-05-04 07:59 46.55287 -109.20546 34837 ft 513 kts 153°
2026-05-04 08:00 46.49065 -109.15623 34834 ft 513 kts 153°
2026-05-04 08:02 46.23976 -108.95900 34834 ft 511 kts 153°
2026-05-04 08:02 46.17729 -108.91020 34834 ft 510 kts 153°
2026-05-04 08:03 46.11485 -108.86155 34822 ft 509 kts 153°
2026-05-04 08:03 46.05302 -108.81349 34815 ft 507 kts 153°
2026-05-04 08:04 45.99093 -108.76536 34818 ft 506 kts 153°
2026-05-04 08:04 45.92900 -108.71747 34865 ft 505 kts 153°
2026-05-04 08:05 45.86720 -108.66979 34879 ft 504 kts 153°
2026-05-04 08:05 45.80665 -108.61935 34880 ft 504 kts 146°
2026-05-04 08:06 45.75242 -108.55551 34897 ft 504 kts 139°
2026-05-04 08:06 45.70041 -108.48891 34806 ft 505 kts 139°
2026-05-04 08:08 45.48923 -108.22426 34790 ft 504 kts 140°
2026-05-04 08:11 45.25107 -107.92972 34806 ft 507 kts 140°
2026-05-04 08:11 45.17102 -107.83149 34808 ft 507 kts 140°
2026-05-04 08:12 45.11772 -107.76627 34806 ft 505 kts 140°
2026-05-04 08:12 45.06454 -107.70137 34813 ft 503 kts 140°
2026-05-04 08:13 45.01151 -107.63685 34813 ft 502 kts 140°
2026-05-04 08:13 44.95889 -107.57296 34809 ft 501 kts 140°
2026-05-04 08:14 44.90605 -107.50896 34805 ft 500 kts 140°
2026-05-04 08:16 44.69480 -107.25480 34852 ft 501 kts 140°
2026-05-04 08:16 44.64168 -107.19126 34861 ft 502 kts 140°
2026-05-04 08:17 44.58834 -107.12760 34857 ft 503 kts 140°
2026-05-04 08:17 44.53498 -107.06410 34837 ft 504 kts 140°
2026-05-04 08:19 44.32163 -106.81180 34883 ft 501 kts 140°
2026-05-04 08:20 44.26833 -106.74915 34781 ft 500 kts 140°
2026-05-04 08:20 44.21517 -106.68681 34782 ft 499 kts 140°
2026-05-04 08:21 44.16204 -106.62467 34786 ft 498 kts 140°
2026-05-04 08:21 44.10894 -106.56270 34789 ft 497 kts 141°
2026-05-04 08:22 44.05618 -106.50126 34789 ft 497 kts 141°
2026-05-04 08:24 43.86817 -106.24201 34803 ft 498 kts 134°
2026-05-04 08:24 43.82063 -106.17206 34792 ft 499 kts 134°
2026-05-04 08:25 43.77294 -106.10229 34796 ft 499 kts 135°
2026-05-04 08:25 43.72515 -106.03260 34786 ft 499 kts 135°
2026-05-04 08:27 43.53378 -105.75503 34784 ft 501 kts 135°
2026-05-04 08:28 43.48556 -105.68550 34778 ft 501 kts 135°
2026-05-04 08:28 43.43741 -105.61626 34793 ft 501 kts 135°
2026-05-04 08:29 43.38934 -105.54732 34794 ft 501 kts 135°
2026-05-04 08:31 43.19604 -105.27171 34821 ft 501 kts 135°
2026-05-04 08:33 43.00179 -104.99744 34825 ft 501 kts 136°
2026-05-04 08:35 42.80736 -104.72555 34819 ft 501 kts 136°
2026-05-04 08:35 42.75852 -104.65767 34813 ft 501 kts 136°
2026-05-04 08:37 42.58753 -104.42127 34823 ft 501 kts 136°
2026-05-04 08:38 42.53877 -104.35422 34813 ft 502 kts 136°
2026-05-04 08:38 42.48960 -104.28676 34810 ft 503 kts 136°
2026-05-04 08:40 42.29156 -104.01668 34801 ft 508 kts 137°
2026-05-04 08:41 42.24158 -103.94892 34813 ft 510 kts 137°
2026-05-04 08:41 42.19136 -103.88098 34806 ft 511 kts 137°
2026-05-04 08:42 42.14090 -103.81289 34815 ft 513 kts 137°
2026-05-04 08:42 42.09066 -103.74527 34839 ft 514 kts 137°
2026-05-04 08:43 42.03996 -103.67718 34850 ft 515 kts 137°
2026-05-04 08:43 41.98925 -103.60921 34872 ft 515 kts 137°
2026-05-04 08:44 41.93846 -103.54131 34879 ft 514 kts 137°
2026-05-04 08:46 41.69506 -103.35631 34846 ft 504 kts 159°
2026-05-04 08:46 41.63134 -103.31628 34827 ft 505 kts 159°
2026-05-04 08:47 41.56795 -103.27640 34819 ft 506 kts 159°
2026-05-04 08:47 41.50410 -103.23633 34827 ft 508 kts 159°
2026-05-04 08:48 41.43995 -103.19618 34821 ft 509 kts 159°
2026-05-04 08:48 41.37575 -103.15609 34819 ft 510 kts 160°
2026-05-04 08:49 41.31145 -103.11602 34849 ft 511 kts 159°
2026-05-04 08:50 41.08621 -102.97540 34864 ft 514 kts 155°
2026-05-04 08:51 41.02432 -102.92762 34849 ft 515 kts 153°
2026-05-04 08:51 40.96273 -102.87917 34837 ft 514 kts 154°
2026-05-04 08:52 40.90118 -102.83120 34817 ft 513 kts 154°
2026-05-04 08:52 40.83962 -102.78365 34779 ft 512 kts 154°
2026-05-04 08:54 40.59393 -102.59510 34782 ft 512 kts 154°
2026-05-04 08:55 40.53228 -102.54802 34796 ft 512 kts 154°
2026-05-04 08:55 40.47048 -102.50093 34808 ft 513 kts 154°
2026-05-04 09:01 39.81779 -102.00966 34826 ft 516 kts 154°
2026-05-04 09:01 39.75546 -101.96332 34827 ft 515 kts 154°
2026-05-04 09:02 39.69358 -101.91740 34831 ft 515 kts 155°
2026-05-04 09:02 39.63133 -101.87131 34804 ft 515 kts 155°
2026-05-04 09:03 39.56909 -101.82531 34807 ft 515 kts 155°
2026-05-04 09:03 39.50673 -101.77933 34796 ft 514 kts 155°
2026-05-04 09:04 39.44444 -101.73348 34777 ft 515 kts 155°
2026-05-04 09:04 39.38252 -101.68801 34765 ft 514 kts 156°
2026-05-04 09:05 39.32974 -101.65141 34839 ft 513 kts 158°
2026-05-04 09:05 39.25587 -101.60267 34821 ft 513 kts 158°
2026-05-04 09:06 39.20303 -101.56775 34793 ft 514 kts 158°
2026-05-04 09:08 38.94918 -101.39848 34767 ft 515 kts 158°
2026-05-04 09:08 38.88554 -101.35624 34767 ft 515 kts 158°
2026-05-04 09:09 38.82186 -101.31407 34753 ft 515 kts 158°
2026-05-04 09:09 38.75819 -101.27200 34772 ft 514 kts 158°
2026-05-04 09:10 38.69456 -101.23001 34747 ft 513 kts 158°
2026-05-04 09:10 38.63114 -101.18824 34779 ft 512 kts 158°
2026-05-04 09:11 38.56774 -101.14658 34769 ft 512 kts 158°
2026-05-04 09:11 38.50459 -101.10519 34798 ft 513 kts 158°
2026-05-04 09:12 38.44090 -101.06352 34811 ft 515 kts 158°
2026-05-04 09:14 38.18377 -100.89608 34771 ft 522 kts 158°
2026-05-04 09:14 38.11903 -100.85412 34731 ft 523 kts 158°
2026-05-04 09:15 38.05392 -100.81203 34749 ft 525 kts 158°
2026-05-04 09:15 37.98869 -100.76992 34752 ft 526 kts 158°
2026-05-04 09:17 37.68990 -100.59981 34742 ft 523 kts 162°
2026-05-04 09:18 37.62306 -100.56339 34759 ft 523 kts 162°
2026-05-04 09:18 37.55621 -100.52699 34743 ft 523 kts 162°
2026-05-04 09:19 37.48989 -100.49102 34747 ft 522 kts 162°
2026-05-04 09:19 37.42298 -100.45479 34754 ft 523 kts 163°
2026-05-04 09:20 37.35598 -100.41860 34749 ft 524 kts 163°
2026-05-04 09:20 37.28879 -100.38236 34754 ft 525 kts 163°
2026-05-04 09:21 37.22195 -100.34638 34740 ft 527 kts 163°
2026-05-04 09:21 37.15411 -100.30994 34747 ft 530 kts 163°
2026-05-04 09:22 37.08655 -100.27371 34747 ft 532 kts 163°
2026-05-04 09:22 37.01829 -100.23717 34721 ft 535 kts 163°
2026-05-04 09:23 36.94967 -100.20052 34784 ft 537 kts 163°
2026-05-04 09:23 36.88078 -100.16379 34749 ft 538 kts 163°
2026-05-04 09:25 36.60588 -100.01793 34758 ft 538 kts 164°
2026-05-04 09:26 36.53656 -99.98133 34745 ft 538 kts 164°
2026-05-04 09:26 36.46776 -99.94508 34790 ft 540 kts 164°
2026-05-04 09:27 36.39854 -99.90866 34815 ft 541 kts 164°
2026-05-04 09:27 36.32936 -99.87105 34785 ft 547 kts 160°
2026-05-04 09:28 36.26261 -99.82610 34862 ft 550 kts 158°
2026-05-04 09:28 36.19546 -99.77998 34828 ft 551 kts 158°
2026-05-04 09:29 36.12816 -99.73423 34809 ft 551 kts 158°
2026-05-04 09:29 36.06093 -99.68896 34777 ft 549 kts 159°
2026-05-04 09:30 35.99375 -99.64391 34800 ft 549 kts 159°
2026-05-04 09:30 35.92668 -99.59902 34787 ft 549 kts 159°
2026-05-04 09:31 35.85958 -99.55415 34781 ft 548 kts 159°
2026-05-04 09:31 35.79291 -99.50965 34801 ft 548 kts 159°
2026-05-04 09:32 35.72548 -99.46473 34814 ft 548 kts 159°
2026-05-04 09:34 35.45721 -99.28688 34871 ft 550 kts 159°
2026-05-04 09:34 35.38975 -99.24237 34849 ft 550 kts 159°
2026-05-04 09:35 35.32244 -99.19803 34871 ft 548 kts 159°
2026-05-04 09:35 35.25537 -99.15393 34877 ft 546 kts 159°
2026-05-04 09:37 34.98826 -98.97917 34898 ft 543 kts 159°
2026-05-04 09:38 34.92133 -98.93687 34876 ft 534 kts 167°
2026-05-04 09:38 34.88679 -98.92521 34881 ft 514 kts 182°
2026-05-04 09:38 34.85182 -98.92476 34881 ft 491 kts 197°
2026-05-04 09:39 34.78304 -98.93388 34887 ft 503 kts 195°
2026-05-04 09:39 34.71299 -98.94021 34869 ft 505 kts 194°
2026-05-04 09:40 34.64278 -98.94602 34843 ft 504 kts 194°
2026-05-04 09:40 34.57333 -98.95206 34862 ft 503 kts 194°
2026-05-04 09:41 34.53819 -98.95522 34182 ft 513 kts 193°
2026-05-04 09:42 34.31884 -98.84044 29938 ft 529 kts 135°
2026-05-04 09:43 34.29429 -98.80743 29348 ft 524 kts 136°
2026-05-04 09:43 34.26974 -98.77510 28803 ft 519 kts 136°
2026-05-04 09:43 34.24550 -98.74361 28288 ft 514 kts 136°
2026-05-04 09:43 34.22113 -98.71218 27792 ft 509 kts 136°
2026-05-04 09:44 34.19702 -98.68114 27292 ft 504 kts 136°
2026-05-04 09:44 34.17311 -98.65037 26793 ft 500 kts 136°
2026-05-04 09:44 34.14944 -98.61987 26283 ft 495 kts 136°
2026-05-04 09:46 33.99073 -98.41507 23184 ft 463 kts 136°
2026-05-04 09:46 33.96906 -98.38710 22675 ft 460 kts 136°
2026-05-04 09:46 33.94701 -98.35871 22127 ft 457 kts 136°
2026-05-04 09:47 33.92558 -98.33117 21615 ft 454 kts 136°
2026-05-04 09:47 33.90403 -98.30350 21110 ft 451 kts 136°
2026-05-04 09:49 33.76332 -98.12323 17848 ft 436 kts 136°
2026-05-04 09:49 33.74258 -98.09674 17356 ft 432 kts 136°
2026-05-04 09:49 33.72202 -98.07050 16889 ft 429 kts 136°
2026-05-04 09:51 33.60391 -97.92002 14466 ft 397 kts 136°
2026-05-04 09:51 33.58509 -97.89609 14106 ft 392 kts 136°
2026-05-04 09:51 33.56647 -97.87246 13741 ft 387 kts 136°
2026-05-04 09:51 33.54804 -97.84908 13374 ft 381 kts 136°
2026-05-04 09:52 33.52999 -97.82621 12993 ft 376 kts 136°
2026-05-04 09:52 33.51207 -97.80353 12603 ft 371 kts 136°
2026-05-04 09:52 33.49444 -97.78124 12251 ft 366 kts 136°
2026-05-04 09:52 33.47703 -97.75924 11910 ft 360 kts 136°
2026-05-04 09:53 33.45994 -97.73765 11576 ft 355 kts 136°
2026-05-04 09:53 33.44306 -97.71633 11239 ft 350 kts 136°
2026-05-04 09:53 33.42642 -97.69532 10915 ft 345 kts 136°
2026-05-04 09:53 33.40999 -97.67459 10596 ft 341 kts 136°
2026-05-04 09:54 33.39373 -97.65411 10281 ft 336 kts 136°
2026-05-04 09:54 33.37798 -97.63369 9981 ft 333 kts 132°
2026-05-04 09:54 33.36402 -97.61186 9634 ft 329 kts 128°
2026-05-04 09:54 33.35103 -97.58988 9319 ft 324 kts 127°
2026-05-04 09:55 33.33813 -97.56804 8994 ft 318 kts 128°
2026-05-04 09:55 33.32534 -97.54673 8691 ft 312 kts 128°
2026-05-04 09:55 33.31265 -97.52591 8401 ft 307 kts 129°
2026-05-04 09:55 33.30014 -97.50556 8112 ft 301 kts 129°
2026-05-04 09:56 33.28782 -97.48557 7829 ft 295 kts 129°
2026-05-04 09:56 33.27613 -97.46579 7548 ft 286 kts 121°
2026-05-04 09:56 33.27065 -97.44336 7269 ft 280 kts 94°
2026-05-04 09:56 33.26975 -97.42015 7047 ft 282 kts 94°
2026-05-04 09:57 33.26862 -97.39647 6819 ft 286 kts 94°
2026-05-04 09:57 33.26742 -97.37272 6536 ft 285 kts 94°
2026-05-04 09:57 33.26623 -97.34948 6400 ft 274 kts 94°
2026-05-04 09:57 33.26509 -97.32721 6027 ft 272 kts 95°
2026-05-04 09:58 33.26393 -97.30482 5719 ft 268 kts 95°
2026-05-04 09:58 33.26279 -97.28302 5449 ft 261 kts 96°
2026-05-04 09:58 33.26167 -97.26169 5191 ft 254 kts 96°
2026-05-04 10:00 33.24804 -97.11911 4311 ft 243 kts 104°
2026-05-04 10:00 33.24302 -97.10089 4204 ft 226 kts 134°
2026-05-04 10:02 33.14956 -97.05390 3686 ft 202 kts 184°
2026-05-04 10:04 33.05974 -97.05389 3123 ft 166 kts 185°
2026-05-04 10:04 33.04823 -97.05395 3058 ft 165 kts 186°
2026-05-04 10:04 33.03677 -97.05402 2963 ft 166 kts 186°
2026-05-04 10:04 33.02524 -97.05408 2753 ft 164 kts 185°
2026-05-04 10:05 33.01403 -97.05412 2526 ft 156 kts 186°
2026-05-04 10:05 33.00371 -97.05417 2328 ft 140 kts 186°
2026-05-04 10:05 32.99426 -97.05423 2189 ft 135 kts 186°
2026-05-04 10:05 32.98473 -97.05429 1979 ft 137 kts 185°
2026-05-04 10:06 32.97577 -97.05432 1821 ft 123 kts 185°
2026-05-04 10:06 32.96776 -97.05412 1641 ft 106 kts 181°
2026-05-04 10:06 32.95979 -97.05407 1418 ft 122 kts 184°
2026-05-04 10:08 32.90679 -97.05471 621 ft 88 kts 180°
2026-05-04 10:08 32.90255 -97.05472 618 ft 35 kts 179°
2026-05-04 10:08 32.90175 -97.05470 618 ft 1 kts 179°
2026-05-04 10:08 32.90126 -97.05496 624 ft 12 kts 234°
2026-05-04 10:09 32.90118 -97.05594 615 ft 12 kts 271°
2026-05-04 10:09 32.90120 -97.05695 625 ft 12 kts 270°
2026-05-04 10:09 32.90120 -97.05795 623 ft 12 kts 270°
2026-05-04 10:09 32.90119 -97.05895 624 ft 12 kts 269°
2026-05-04 10:10 32.90117 -97.05991 617 ft 10 kts 261°
2026-05-04 10:10 32.90057 -97.06016 615 ft 4 kts 181°
2026-05-04 10:10 32.90047 -97.06017 621 ft 0 kts 180°